Keokuk, IA

9:51 PM CST on December 14, 2017 (GMT -0600)
Keokuk Municipal

Weather History for KEOK - December, 2013

Change the Weather History Date:

Wednesday, December 18, 2013

  Actual Average Record
Temperature  
Mean Temperature 30 °F -  
Max Temperature 44 °F 36 °F 122 °F (1997)
Min Temperature 15 °F 20 °F -11 °F (1985)
Degree Days  
Heating Degree Days 36    
Moisture  
Dew Point 22 °F    
Average Humidity 64    
Maximum Humidity 86    
Minimum Humidity 44    
Precipitation  
Precipitation 0.00 in - - ()
Sea Level Pressure  
Sea Level Pressure 29.97 in    
Wind  
Wind Speed 9 mph (SSW)    
Max Wind Speed 21 mph    
Max Gust Speed 31 mph    
Visibility 10 miles    
Events      
Averages and records for this station are not official NWS values.
T = Trace of Precipitation, MM = Missing Value Source: NWS Daily Summary

Daily Weather History Graph

Daily Weather History Graph

Search for Another Location

Airport or City:

Trip Planner

Search our weather history database for the weather conditions in past years. The results will help you decide how hot, cold, wet, or windy it might be!

Date:

Astronomy

Dec. 18, 2013 Rise Set
Actual Time 7:23 AM CST 4:41 PM CST
Civil Twilight 6:53 AM CST 5:11 PM CST
Nautical Twilight 6:18 AM CST 5:46 PM CST
Astronomical Twilight 5:45 AM CST 6:19 PM CST
Moon 6:13 PM CST (12/18) 8:03 AM CST (12/18)
Length of Visible Light 10h 18m
Length of Day
9h 17m
Full, 98% of the Moon is Illuminated
Dec 18
Full
Dec 25
Last Quarter
Jan 1
New
Jan 7
First Quarter
Jan 15
Full

Hourly Weather History & Observations

Time (CST) Temp. Windchill Dew Point Humidity Pressure Visibility Wind Dir Wind Speed Gust Speed Precip Events Conditions
12:15 AM 23.0 °F 17.0 °F 14.0 °F 68% 30.20 in 10.0 mi WSW 4.6 mph - N/A   Clear
12:35 AM 21.2 °F 14.9 °F 14.0 °F 74% 30.20 in 10.0 mi WSW 4.6 mph - N/A   Clear
12:55 AM 17.6 °F 8.2 °F 12.2 °F 79% 30.20 in 10.0 mi SW 6.9 mph - N/A   Clear
1:15 AM 21.2 °F 12.6 °F 14.0 °F 74% 30.20 in 10.0 mi WSW 6.9 mph - N/A   Clear
1:35 AM 19.4 °F 10.4 °F 12.2 °F 74% 30.20 in 10.0 mi SW 6.9 mph - N/A   Clear
1:55 AM 19.4 °F 9.5 °F 14.0 °F 80% 30.20 in 10.0 mi SW 8.1 mph - N/A   Clear
2:15 AM 19.4 °F 10.4 °F 14.0 °F 80% 30.19 in 10.0 mi SSW 6.9 mph - N/A   Clear
2:35 AM 19.4 °F 11.5 °F 14.0 °F 80% 30.20 in 10.0 mi SW 5.8 mph - N/A   Clear
2:55 AM 19.4 °F 12.8 °F 14.0 °F 80% 30.20 in 10.0 mi SSW 4.6 mph - N/A   Clear
3:15 AM 19.4 °F 11.5 °F 14.0 °F 80% 30.19 in 10.0 mi SSW 5.8 mph - N/A   Clear
3:35 AM 15.8 °F 7.2 °F 12.2 °F 86% 30.19 in 10.0 mi SSW 5.8 mph - N/A   Clear
3:55 AM 19.4 °F - 14.0 °F 80% 30.17 in 10.0 mi North - - N/A   Clear
4:15 AM 19.4 °F 11.5 °F 12.2 °F 74% 30.17 in 10.0 mi SSW 5.8 mph - N/A   Clear
4:35 AM 21.2 °F 13.6 °F 14.0 °F 74% 30.17 in 10.0 mi SSW 5.8 mph - N/A   Clear
4:55 AM 21.2 °F 14.9 °F 14.0 °F 74% 30.16 in 10.0 mi South 4.6 mph - N/A   Clear
5:15 AM 21.2 °F 14.9 °F 14.0 °F 74% 30.15 in 10.0 mi South 4.6 mph - N/A   Clear
5:35 AM 23.0 °F 18.4 °F 14.0 °F 68% 30.15 in 10.0 mi South 3.5 mph - N/A   Clear
5:55 AM 23.0 °F 14.7 °F 14.0 °F 68% 30.14 in 10.0 mi South 6.9 mph - N/A   Clear
6:15 AM 23.0 °F 15.8 °F 14.0 °F 68% 30.14 in 10.0 mi South 5.8 mph - N/A   Clear
6:35 AM 24.8 °F 17.9 °F 14.0 °F 64% 30.13 in 10.0 mi SSE 5.8 mph - N/A   Clear
6:55 AM 24.8 °F 16.1 °F 14.0 °F 64% 30.12 in 10.0 mi SSE 8.1 mph - N/A   Clear
7:15 AM 21.2 °F 14.9 °F 14.0 °F 74% 30.11 in 10.0 mi SE 4.6 mph - N/A   Clear
7:35 AM 21.2 °F 14.9 °F 14.0 °F 74% 30.10 in 10.0 mi SE 4.6 mph - N/A   Clear
7:55 AM 23.0 °F 14.7 °F 14.0 °F 68% 30.10 in 10.0 mi South 6.9 mph - N/A   Clear
8:15 AM 26.6 °F 18.2 °F 14.0 °F 59% 30.09 in 10.0 mi South 8.1 mph - N/A   Clear
8:35 AM 28.4 °F 17.5 °F 14.0 °F 55% 30.08 in 10.0 mi South 13.8 mph - N/A   Clear
8:55 AM 30.2 °F 19.8 °F 15.8 °F 55% 30.07 in 10.0 mi South 13.8 mph 19.6 mph N/A   Clear
9:15 AM 30.2 °F 19.8 °F 15.8 °F 55% 30.06 in 10.0 mi South 13.8 mph 20.7 mph N/A   Clear
9:35 AM 32.0 °F 21.6 °F 15.8 °F 51% 30.05 in 10.0 mi South 15.0 mph 21.9 mph N/A   Clear
9:55 AM 33.8 °F 22.8 °F 14.0 °F 44% 30.04 in 10.0 mi South 18.4 mph - N/A   Clear
10:15 AM 33.8 °F 22.8 °F 15.8 °F 48% 30.03 in 10.0 mi South 18.4 mph 27.6 mph N/A   Clear
10:35 AM 35.6 °F 24.5 °F 17.6 °F 48% 30.01 in 10.0 mi South 20.7 mph 31.1 mph N/A   Clear
10:55 AM 35.6 °F 24.8 °F 17.6 °F 48% 29.99 in 10.0 mi South 19.6 mph 27.6 mph N/A   Clear
11:15 AM 35.6 °F 24.5 °F 19.4 °F 52% 29.97 in 10.0 mi SSW 20.7 mph 27.6 mph N/A   Clear
11:35 AM 35.6 °F 24.8 °F 21.2 °F 56% 29.96 in - South 19.6 mph 25.3 mph N/A   Clear
11:55 AM 37.4 °F 27.8 °F 21.2 °F 52% 29.94 in 10.0 mi South 17.3 mph 26.5 mph N/A   Clear
12:15 PM 39.2 °F 29.6 °F 23.0 °F 52% 29.92 in 10.0 mi South 19.6 mph 27.6 mph N/A   Clear
12:35 PM 39.2 °F 30.2 °F 23.0 °F 52% 29.91 in 10.0 mi South 17.3 mph 26.5 mph N/A   Clear
12:55 PM 41.0 °F 32.5 °F 24.8 °F 53% 29.89 in 10.0 mi South 17.3 mph 26.5 mph N/A   Clear
1:15 PM 41.0 °F 32.2 °F 24.8 °F 53% 29.87 in 10.0 mi SSW 18.4 mph 26.5 mph N/A   Clear
1:35 PM 41.0 °F 32.8 °F 26.6 °F 57% 29.86 in 10.0 mi South 16.1 mph 24.2 mph N/A   Clear
1:55 PM 42.8 °F 36.2 °F 26.6 °F 53% 29.85 in 10.0 mi South 12.7 mph 21.9 mph N/A   Clear
2:15 PM 42.8 °F 34.8 °F 28.4 °F 57% 29.83 in 10.0 mi SSW 17.3 mph 26.5 mph N/A   Clear
2:35 PM 42.8 °F 35.1 °F 28.4 °F 57% 29.82 in 10.0 mi South 16.1 mph 25.3 mph N/A   Clear
2:55 PM 42.8 °F 35.8 °F 28.4 °F 57% 29.82 in 10.0 mi SSW 13.8 mph - N/A   Clear
3:15 PM 42.8 °F 36.6 °F 28.4 °F 57% 29.82 in 10.0 mi SSW 11.5 mph - N/A   Clear
3:35 PM 42.8 °F 35.1 °F 30.2 °F 61% 29.82 in 10.0 mi South 16.1 mph - N/A   Clear
3:55 PM 42.8 °F 37.0 °F 30.2 °F 61% 29.82 in 10.0 mi SSW 10.4 mph 17.3 mph N/A   Clear
4:15 PM 42.8 °F 36.2 °F 30.2 °F 61% 29.82 in 10.0 mi SSW 12.7 mph - N/A   Clear
4:35 PM 42.8 °F 36.2 °F 30.2 °F 61% 29.81 in 10.0 mi SSW 12.7 mph 18.4 mph N/A   Clear
4:55 PM 42.8 °F 35.8 °F 30.2 °F 61% 29.81 in 10.0 mi SSW 13.8 mph - N/A   Clear
5:15 PM 42.8 °F 35.8 °F 32.0 °F 66% 29.81 in 10.0 mi South 13.8 mph - N/A   Clear
5:35 PM 44.6 °F 38.1 °F 32.0 °F 61% 29.81 in 10.0 mi SSW 13.8 mph - N/A   Clear
5:55 PM 44.6 °F 38.1 °F 32.0 °F 61% 29.80 in 10.0 mi South 13.8 mph 20.7 mph N/A   Clear
6:15 PM 44.6 °F 38.8 °F 32.0 °F 61% 29.81 in 10.0 mi SSW 11.5 mph - N/A   Clear
6:35 PM 44.6 °F 38.4 °F 32.0 °F 61% 29.81 in - SSW 12.7 mph - N/A   Clear
6:55 PM 44.6 °F 38.8 °F 32.0 °F 61% 29.81 in 10.0 mi SSW 11.5 mph - N/A   Clear
7:15 PM 42.8 °F 36.2 °F 32.0 °F 66% 29.81 in 10.0 mi SSW 12.7 mph - N/A   Clear
7:35 PM 42.8 °F 37.0 °F 32.0 °F 66% 29.82 in 10.0 mi SSW 10.4 mph 17.3 mph N/A   Clear
7:55 PM 42.8 °F 37.0 °F 32.0 °F 66% 29.82 in 10.0 mi South 10.4 mph - N/A   Clear
8:15 PM 42.8 °F 37.0 °F 32.0 °F 66% 29.82 in 10.0 mi SSW 10.4 mph - N/A   Clear
8:35 PM 42.8 °F 36.6 °F 32.0 °F 66% 29.81 in 10.0 mi South 11.5 mph - N/A   Clear
8:55 PM 42.8 °F 35.8 °F 32.0 °F 66% 29.81 in 10.0 mi SSW 13.8 mph - N/A   Clear
9:15 PM 42.8 °F - 32.0 °F 66% 29.81 in 10.0 mi North - - N/A   Clear
9:35 PM 42.8 °F 35.8 °F 32.0 °F 66% 29.81 in 10.0 mi SSW 13.8 mph 21.9 mph N/A   Clear
9:55 PM 42.8 °F 35.8 °F 32.0 °F 66% 29.82 in 10.0 mi SSW 13.8 mph - N/A   Clear
10:15 PM 42.8 °F 37.0 °F 32.0 °F 66% 29.83 in 10.0 mi SSW 10.4 mph - N/A   Clear
10:35 PM 42.8 °F 36.6 °F 32.0 °F 66% 29.82 in 10.0 mi SSW 11.5 mph - N/A   Clear
10:55 PM 42.8 °F 37.0 °F 32.0 °F 66% 29.83 in 10.0 mi South 10.4 mph - N/A   Clear
11:15 PM 42.8 °F 37.0 °F 32.0 °F 66% 29.82 in 10.0 mi South 10.4 mph - N/A   Clear
11:35 PM 42.8 °F 36.6 °F 32.0 °F 66% 29.82 in 10.0 mi SSW 11.5 mph 17.3 mph N/A   Clear
11:55 PM 42.8 °F 37.0 °F 32.0 °F 66% 29.82 in 10.0 mi SSW 10.4 mph 16.1 mph N/A   Clear